Flag for China Weather past 2 weeks in Xiamen, Fujian, China

Now
93 °F

Scattered clouds.


Feels Like: 105 °F
Forecast: 81 / 98 °F
Wind: 8 mph from East

Location: Xiamen Airport

Current Time: Jul 30, 2014 at 2:19:12 PM

Latest Report: Jul 30, 2014 at 1:00 PM


Visibility: N/A

Pressure: 29.65 "Hg

Humidity: 56%

Dew point: 75 °F

Location of XiamenLocation

Historic Weather in Xiamen — Graph

°F

Xiamen temperature yesterday

Maximum temperature yesterday: 93 °F (at 1:00 PM)
Minimum temperature yesterday: 81 °F (at 3:00 AM)
Average temperature yesterday: 86 °F

Past Weeks' High & Low Weather Summary

 TemperatureHumidityPressure
High99 °F (Jul 22, 2:00 PM)100% (Jul 23, 1:00 PM)29.89 "Hg (Jul 23, 1:00 PM)
Low77 °F (Jul 24, 12:00 PM)39% (Jul 22, 12:00 PM)29.24 "Hg (Jul 23, 2:00 PM)
Average86 °F76%29.70 "Hg
* Reported Jul 15 1:00 PM — Jul 30 1:00 PM, Xiamen, Weather by CustomWeather, © 2014

Note: Actual official high and low records may vary slightly from our data, if they occured in-between our weather recording intervals... More about our weather records

Advertising

Xiamen weather history for previous 24 hours

 ConditionsComfort  
Time TempWeatherWind HumidityBarometerVisibility
1:00 PM
Jul 30
93 °FScattered clouds.8 mph56%29.65 "HgN/A
12:00 PM93 °FScattered clouds.8 mph53%29.68 "HgN/A
11:00 AM93 °FPassing clouds.8 mph53%29.68 "HgN/A
10:00 AM91 °FPassing clouds.3 mph59%29.71 "HgN/A
9:00 AM90 °FPassing clouds.6 mph59%29.71 "HgN/A
8:00 AM88 °FSunny.1 mph70%29.71 "Hg10 mi
7:00 AM84 °FSunny.1 mph79%29.71 "Hg10 mi
6:00 AM84 °FSunny.1 mph79%29.68 "Hg10 mi
5:00 AM82 °FPassing clouds.3 mph84%29.68 "HgN/A
4:00 AM82 °FClear.1 mph84%29.68 "Hg10 mi
3:00 AM82 °FPassing clouds.3 mph79%29.68 "HgN/A
2:00 AM81 °FClear.6 mph89%29.68 "Hg10 mi
1:00 AM82 °FClear.6 mph84%29.68 "Hg10 mi
12:00 AM82 °FClear.6 mph84%29.68 "Hg10 mi
11:00 PM
Jul 29
82 °FClear.3 mph89%29.68 "Hg10 mi
10:00 PM84 °FPassing clouds.6 mph84%29.71 "HgN/A
9:00 PM84 °FPassing clouds.8 mph89%29.71 "HgN/A
8:00 PM86 °FPassing clouds.10 mph79%29.68 "HgN/A
7:00 PM86 °FClear.10 mph75%29.68 "Hg10 mi
6:00 PM88 °FPassing clouds.10 mph70%29.65 "HgN/A
5:00 PM88 °FPassing clouds.17 mph66%29.65 "HgN/A
4:00 PM91 °FSunny.17 mph63%29.65 "Hg10 mi
3:00 PM91 °FPassing clouds.13 mph59%29.65 "HgN/A
2:00 PM93 °FPassing clouds.10 mph56%29.68 "HgN/A
Weather by CustomWeather, © 2014

See weather overviewHow to use our weather pages